Epoch 2006 July 4.0 TT = JDT 2453920.5
T 2006 June 27.22775 TT MPC
q 2.0866788 (2000.0) P Q
n 0.13891802 Peri. 238.05493 -0.28425146 +0.95824283
a 3.6923001 Node 15.52332 -0.83563285 -0.23167849
e 0.4348567 Incl. 6.68897 -0.47002005 -0.16761788
P 7.09
From 98 observations 2006 May 22-2013 Jan. 20, mean residual 0".5.